カタログに戻る

OPS 4682 DEB

運用中PO
NORAD 38450·DEBRIS·🇺🇸 United States

打ち上げ Apr 3, 1965 から Vandenberg Space Force Base

Loading…

次のパス (今後24時間)

TLE

最新Source: Space-Track

元期: Sep 14, 2026, 06:40 UTC

1 38450U 65027FF  26257.27822397 -.00000246  00000-0 -83438-3 0  9995
2 38450  90.2451   9.2990 0025368  16.1220 344.0704 13.00509775643695

AllMySatでOPS 4682 DEBをリアルタイム追跡

Download on the App Store